Weather History for Clinton-Sherman, OK

Change the Weather History Date:

Sunday, July 7, 2013

  Actual Average Record
Temperature  
Mean Temperature 86 °F -  
Max Temperature 98 °F 92 °F 108 °F (2011)
Min Temperature 73 °F 69 °F 66 °F (1997)
Cooling Degree Days 20    
Growing Degree Days 36 (Base 50)    
Moisture  
Dew Point 56 °F    
Average Humidity 37    
Maximum Humidity 59    
Minimum Humidity 21    
Precipitation  
Precipitation 0.00 in - - ()
Sea Level Pressure  
Sea Level Pressure 29.91 in    
Wind  
Wind Speed 16 mph (SSE)    
Max Wind Speed 21 mph    
Max Gust Speed 28 mph    
Visibility 10 miles    
Events      
Averages and records for this station are not official NWS values.
T = Trace of Precipitation, MM = Missing Value Source: NWS Daily Summary

Daily Weather History Graph

Daily Weather History Graph

Search for Another Location

Airport:

Trip Planner

Search our weather history database for the weather conditions in past years. The results will help you decide how hot, cold, wet, or windy it might be!

Date:

Astronomy

Jul. 07, 2013 Rise Set
Actual Time 6:28 AM CDT 8:54 PM CDT
Civil Twilight 5:59 AM CDT 9:24 PM CDT
Nautical Twilight 5:22 AM CDT 10:00 PM CDT
Astronomical Twilight 4:42 AM CDT 10:40 PM CDT
Moon 6:03 AM CDT (7/7) 8:22 PM CDT (7/7)
Length of Visible Light 15h 25m
Length of Day
14h 26m
Waning Crescent, 0% of the Moon is Illuminated
Jul 7
Waning Crescent
Jul 8
New
Jul 15
First Quarter
Jul 22
Full
Jul 29
Last Quarter

Hourly Weather History & Observations

Time (CDT) Temp. Heat Index Dew Point Humidity Pressure Visibility Wind Dir Wind Speed Gust Speed Precip Events Conditions
12:53 AM 81.0 °F 81.0 °F 57.0 °F 44% 29.89 in 10.0 mi SSE 15.0 mph - N/A   Clear
1:53 AM 80.1 °F 80.4 °F 57.0 °F 45% 29.89 in 10.0 mi SSE 16.1 mph - N/A   Clear
2:53 AM 79.0 °F - 57.9 °F 48% 29.89 in 10.0 mi SSE 15.0 mph - N/A   Clear
3:53 AM 78.1 °F - 57.0 °F 48% 29.87 in 10.0 mi SSE 16.1 mph - N/A   Clear
4:53 AM 75.9 °F - 57.9 °F 54% 29.88 in 10.0 mi SSE 12.7 mph - N/A   Clear
5:53 AM 75.0 °F - 57.9 °F 55% 29.89 in 10.0 mi South 15.0 mph - N/A   Clear
6:53 AM 73.9 °F - 59.0 °F 59% 29.91 in 10.0 mi South 12.7 mph - N/A   Clear
7:53 AM 75.0 °F - 59.0 °F 57% 29.93 in 10.0 mi South 15.0 mph - N/A   Clear
8:53 AM 80.1 °F 80.7 °F 59.0 °F 48% 29.93 in 10.0 mi South 18.4 mph - N/A   Clear
9:53 AM 84.9 °F 84.8 °F 60.1 °F 43% 29.94 in 10.0 mi South 19.6 mph - N/A   Clear
10:53 AM 90.0 °F 88.6 °F 57.0 °F 33% 29.94 in 10.0 mi South 17.3 mph - N/A   Clear
11:53 AM 91.9 °F 90.3 °F 55.9 °F 30% 29.93 in 10.0 mi SSW 17.3 mph 23.0 mph N/A   Clear
12:53 PM 93.9 °F 92.0 °F 55.0 °F 27% 29.92 in 10.0 mi SW 12.7 mph 24.2 mph N/A   Clear
1:53 PM 96.1 °F 94.1 °F 55.0 °F 25% 29.91 in 10.0 mi South 15.0 mph 27.6 mph N/A   Clear
2:53 PM 97.0 °F 95.0 °F 55.0 °F 24% 29.90 in 10.0 mi South 16.1 mph 24.2 mph N/A   Clear
3:09 PM 98.6 °F 96.4 °F 53.6 °F 22% 29.99 in 10.0 mi SSE 15.0 mph 23.0 mph N/A   Clear
3:53 PM 98.1 °F - 52.0 °F 21% 29.89 in 10.0 mi SE 17.3 mph 23.0 mph N/A   Clear
4:53 PM 97.0 °F 94.6 °F 54.0 °F 23% 29.88 in 10.0 mi South 15.0 mph 20.7 mph N/A   Clear
5:53 PM 97.0 °F 95.0 °F 55.0 °F 24% 29.88 in 10.0 mi South 17.3 mph 25.3 mph N/A   Clear
6:53 PM 95.0 °F 93.0 °F 55.0 °F 26% 29.88 in 10.0 mi South 20.7 mph 27.6 mph N/A   Clear
7:53 PM 93.0 °F 91.1 °F 55.0 °F 28% 29.89 in 10.0 mi South 18.4 mph - N/A   Clear
8:53 PM 89.1 °F 87.1 °F 55.0 °F 31% 29.91 in 10.0 mi SSE 17.3 mph - N/A   Clear
9:53 PM 86.0 °F 84.7 °F 55.9 °F 36% 29.92 in 10.0 mi SSE 17.3 mph - N/A   Clear
10:53 PM 82.9 °F 82.4 °F 57.0 °F 41% 29.94 in 10.0 mi SE 12.7 mph - N/A   Clear
11:53 PM 81.0 °F 81.0 °F 57.0 °F 44% 29.95 in 10.0 mi SSE 12.7 mph - N/A   Clear